WXM80 ListenWXM80 Stop

You find our weather info also at:

UK Metoffice

WeatherCloud

Weather Underground

Northeastern Weather Network

AWEKAS

Citizen Weather Observer Program (CWOP)

HAMweather, WeatherForYou, PWS Weather


Weather Underground History page Text

Daily Summary for March 20, 2017 Units:  Metric    English   Both
« Previous Day
Next Day »
Daily Weekly Monthly Yearly Custom
  High: Low: Average:
Temperature: 11.1 °C 0.3 °C 5.6 °C
Dew Point: -1.4 °C -6.6 °C -4.3 °C
Humidity: 79 % 30 % 52 %
Wind Speed: 12.9 km/h 0 km/h 4.3 km/h
Wind Gust: 19.3 km/h - -
Wind:- - WNW
Pressure: 1019.5 hPa 1013.4 hPa -
Precipitation: 0 mm    
Historical Graphs
 
 
Tabular Data for March 20, 2017
Time Temperature Dew Point Pressure Wind Wind Speed Wind Gust Humidity Rainfall Rate (Hourly)
00:01 0.5 °C -2.9 °C 1018.8 hPa NW 1.4 km/h 3.7 km/h 78 % 0 mm
00:06 0.5 °C -2.9 °C 1019.2 hPa NW 1 km/h 1.9 km/h 78 % 0 mm
00:11 0.5 °C -2.7 °C 1018.8 hPa Calm   1.6 km/h 79 % 0 mm
00:16 0.4 °C -2.8 °C 1018.8 hPa Calm     79 % 0 mm
00:21 0.4 °C -2.8 °C 1018.8 hPa NW 0.2 km/h 3.7 km/h 79 % 0 mm
00:26 0.4 °C -2.8 °C 1018.8 hPa NW 0.6 km/h 3.7 km/h 79 % 0 mm
00:31 0.4 °C -2.8 °C 1018.8 hPa Calm   1.9 km/h 79 % 0 mm
00:36 0.3 °C -2.9 °C 1018.8 hPa NW 1.6 km/h 3.7 km/h 79 % 0 mm
00:41 0.3 °C -2.9 °C 1018.5 hPa NW 4.2 km/h 5.6 km/h 79 % 0 mm
00:47 0.3 °C -3.1 °C 1018.5 hPa NW 1.6 km/h 3.7 km/h 78 % 0 mm
00:52 0.3 °C -3.1 °C 1018.8 hPa NW 4.5 km/h 5.6 km/h 78 % 0 mm
00:57 0.3 °C -3.1 °C 1018.5 hPa WNW 3.2 km/h 5.6 km/h 78 % 0 mm
00:58 0.3 °C -3.1 °C 1018.5 hPa WNW 3.4 km/h 5.6 km/h 78 % 0 mm
01:03 0.3 °C -3.1 °C 1018.5 hPa WNW 4.2 km/h 5.6 km/h 78 % 0 mm
01:08 0.3 °C -3.1 °C 1018.5 hPa WNW 4.7 km/h 5.6 km/h 78 % 0 mm
01:13 0.4 °C -3.2 °C 1018.5 hPa WNW 3.5 km/h 5.6 km/h 77 % 0 mm
01:18 0.4 °C -3.3 °C 1018.5 hPa WNW 2.3 km/h 7.4 km/h 76 % 0 mm
01:23 0.6 °C -3.4 °C 1018.8 hPa WNW 4.7 km/h 8 km/h 75 % 0 mm
01:28 0.7 °C -3.3 °C 1018.5 hPa WNW 3.9 km/h 5.6 km/h 75 % 0 mm
01:33 0.8 °C -3.3 °C 1018.5 hPa WNW 4.3 km/h 7.4 km/h 74 % 0 mm
01:38 0.9 °C -3.4 °C 1018.5 hPa NNW 3.2 km/h 12.9 km/h 73 % 0 mm
01:43 1 °C -3.5 °C 1018.5 hPa NW 1.8 km/h 5.6 km/h 72 % 0 mm
01:48 1.1 °C -3.4 °C 1018.8 hPa WNW 3.7 km/h 7.4 km/h 72 % 0 mm
01:53 1.3 °C -3.4 °C 1018.8 hPa NW 3.2 km/h 8 km/h 71 % 0 mm
01:58 1.4 °C -3.5 °C 1018.8 hPa NW 6.1 km/h 9.3 km/h 70 % 0 mm
02:03 1.5 °C -3.6 °C 1018.8 hPa WNW 4.5 km/h 9.3 km/h 69 % 0 mm
02:08 1.6 °C -3.7 °C 1018.8 hPa NW 4.7 km/h 9.3 km/h 68 % 0 mm
02:13 1.7 °C -3.6 °C 1018.8 hPa NW 3.1 km/h 9.3 km/h 68 % 0 mm
02:18 1.7 °C -3.6 °C 1018.8 hPa WNW 4.7 km/h 7.4 km/h 68 % 0 mm
02:23 1.8 °C -3.7 °C 1018.8 hPa NNW 6.9 km/h 9.7 km/h 67 % 0 mm
02:28 1.8 °C -3.7 °C 1018.5 hPa WNW 4.8 km/h 11.3 km/h 67 % 0 mm
02:33 1.8 °C -3.8 °C 1018.5 hPa NW 2.9 km/h 9.3 km/h 66 % 0 mm
02:38 1.8 °C -3.8 °C 1018.5 hPa WNW 5.3 km/h 9.7 km/h 66 % 0 mm
02:39 1.8 °C -3.8 °C 1018.5 hPa WNW 6.1 km/h 9.3 km/h 66 % 0 mm
02:44 1.9 °C -3.8 °C 1018.5 hPa NW 3.5 km/h 7.4 km/h 66 % 0 mm
02:49 1.9 °C -3.8 °C 1018.5 hPa NW 4.8 km/h 9.3 km/h 66 % 0 mm
02:54 1.9 °C -3.9 °C 1018.5 hPa WNW 6.9 km/h 14.8 km/h 65 % 0 mm
02:59 1.9 °C -3.7 °C 1018.5 hPa NNW 4.2 km/h 7.4 km/h 66 % 0 mm
03:04 1.9 °C -3.7 °C 1018.5 hPa NNW 5.8 km/h 14.8 km/h 66 % 0 mm
03:09 1.9 °C -3.7 °C 1018.5 hPa NW 6.4 km/h 9.3 km/h 66 % 0 mm
03:14 1.9 °C -3.8 °C 1018.5 hPa NW 4 km/h 9.3 km/h 66 % 0 mm
03:19 1.9 °C -4.2 °C 1018.5 hPa NW 2.4 km/h 9.3 km/h 64 % 0 mm
03:24 1.9 °C -4.2 °C 1018.5 hPa NW 6.8 km/h 13 km/h 64 % 0 mm
03:29 1.9 °C -4.2 °C 1018.5 hPa NW 2.4 km/h 5.6 km/h 64 % 0 mm
03:34 1.8 °C -4.3 °C 1018.5 hPa NW 5.6 km/h 11.1 km/h 64 % 0 mm
03:39 1.8 °C -4.5 °C 1018.5 hPa North 4.8 km/h 9.7 km/h 63 % 0 mm
03:44 1.8 °C -4.5 °C 1018.5 hPa NNW 4.2 km/h 6.4 km/h 63 % 0 mm
03:49 1.7 °C -4.4 °C 1018.5 hPa NW 4.3 km/h 9.3 km/h 64 % 0 mm
03:54 1.7 °C -4.6 °C 1018.5 hPa NNW 5.8 km/h 8 km/h 63 % 0 mm
03:59 1.7 °C -4.8 °C 1018.5 hPa North 6.1 km/h 7.4 km/h 62 % 0 mm
04:04 1.6 °C -4.7 °C 1018.5 hPa NNW 6.6 km/h 6.6 km/h 63 % 0 mm
04:09 1.6 °C -4.7 °C 1018.2 hPa NW 5.1 km/h 9.3 km/h 63 % 0 mm
04:14 1.6 °C -4.7 °C 1018.5 hPa NW 5.5 km/h 7.4 km/h 63 % 0 mm
04:19 1.5 °C -5 °C 1018.2 hPa NW 8.2 km/h 11.1 km/h 62 % 0 mm
04:20 1.5 °C -5 °C 1018.5 hPa NW 5.5 km/h 11.3 km/h 62 % 0 mm
04:25 1.4 °C -5.1 °C 1018.2 hPa NNW 2.3 km/h 5.6 km/h 62 % 0 mm
04:30 1.4 °C -5.3 °C 1018.2 hPa NNW 3.5 km/h 9.3 km/h 61 % 0 mm
04:35 1.4 °C -5.1 °C 1018.2 hPa NNW 3.5 km/h 11.1 km/h 62 % 0 mm
04:40 1.3 °C -5.2 °C 1018.2 hPa North 6 km/h 8 km/h 62 % 0 mm
04:45 1.3 °C -5.2 °C 1018.2 hPa North 5 km/h 11.1 km/h 62 % 0 mm
04:50 1.2 °C -5.3 °C 1018.2 hPa NNW 7.4 km/h 11.1 km/h 62 % 0 mm
04:55 1.2 °C -5.3 °C 1018.5 hPa North 4.2 km/h 9.7 km/h 62 % 0 mm
05:00 1.2 °C -5.3 °C 1018.5 hPa North 4.8 km/h 13 km/h 62 % 0 mm
05:05 1.1 °C -5.4 °C 1018.5 hPa NNW 5 km/h 8 km/h 62 % 0 mm
05:10 1.1 °C -5.2 °C 1018.5 hPa NNW 5.3 km/h 5.6 km/h 63 % 0 mm
05:15 1.1 °C -5.4 °C 1018.5 hPa North 6.1 km/h 8 km/h 62 % 0 mm
05:20 1 °C -5.3 °C 1018.5 hPa NW 4.3 km/h 7.4 km/h 63 % 0 mm
05:25 0.9 °C -5.3 °C 1018.5 hPa WNW 4.2 km/h 7.4 km/h 63 % 0 mm
05:30 0.9 °C -5.3 °C 1018.5 hPa NW 6.1 km/h 11.1 km/h 63 % 0 mm
05:35 0.9 °C -5.4 °C 1018.5 hPa North 5.5 km/h 7.4 km/h 63 % 0 mm
05:40 0.9 °C -5.2 °C 1018.5 hPa Calm   5.6 km/h 64 % 0 mm
05:45 0.8 °C -5 °C 1018.5 hPa NW 2.6 km/h 11.1 km/h 65 % 0 mm
05:50 0.8 °C -5.3 °C 1018.5 hPa NW 5.5 km/h 11.1 km/h 64 % 0 mm
05:55 0.8 °C -5.1 °C 1018.5 hPa NW 3.7 km/h 5.6 km/h 65 % 0 mm
06:00 0.8 °C -5.3 °C 1018.5 hPa NNW 6.1 km/h 9.3 km/h 64 % 0 mm
06:06 0.8 °C -5.1 °C 1018.5 hPa NW 4.7 km/h 6.4 km/h 65 % 0 mm
06:11 0.8 °C -5.1 °C 1018.5 hPa NW 4.2 km/h 7.4 km/h 65 % 0 mm
06:16 0.7 °C -5.1 °C 1018.5 hPa NW 2.3 km/h 7.4 km/h 65 % 0 mm
06:21 0.7 °C -5.1 °C 1018.5 hPa NW 5.3 km/h 11.1 km/h 65 % 0 mm
06:26 0.7 °C -5.1 °C 1018.5 hPa North 8 km/h 8 km/h 65 % 0 mm
06:31 0.7 °C -5.1 °C 1018.5 hPa NW 3.5 km/h 9.3 km/h 65 % 0 mm
06:36 0.8 °C -5.1 °C 1018.5 hPa North 3.1 km/h 7.4 km/h 65 % 0 mm
06:41 0.8 °C -4.8 °C 1018.5 hPa NW 3.1 km/h 7.4 km/h 66 % 0 mm
06:46 0.7 °C -4.9 °C 1018.8 hPa Calm   1.6 km/h 66 % 0 mm
06:51 0.7 °C -4.9 °C 1018.8 hPa North 3.4 km/h 9.3 km/h 66 % 0 mm
06:56 0.7 °C -4.9 °C 1018.8 hPa NNW 0.2 km/h 1.9 km/h 66 % 0 mm
07:01 0.7 °C -4.9 °C 1018.5 hPa NW 3.1 km/h 5.6 km/h 66 % 0 mm
07:06 0.7 °C -4.9 °C 1018.5 hPa Calm     66 % 0 mm
07:11 0.7 °C -4.9 °C 1018.8 hPa Calm     66 % 0 mm
07:16 0.7 °C -4.9 °C 1018.8 hPa NNW 6.1 km/h 8 km/h 66 % 0 mm
07:21 0.7 °C -4.9 °C 1018.8 hPa WNW 7.9 km/h 14.8 km/h 66 % 0 mm
07:26 0.8 °C -4.8 °C 1018.8 hPa WNW 5.6 km/h 16.1 km/h 66 % 0 mm
07:31 0.9 °C -4.8 °C 1018.8 hPa NW 7.1 km/h 9.3 km/h 66 % 0 mm
07:36 1 °C -4.7 °C 1018.8 hPa NW 2.9 km/h 9.3 km/h 66 % 0 mm
07:41 1.2 °C -4.5 °C 1019.2 hPa WNW 6.1 km/h 11.3 km/h 66 % 0 mm
07:47 1.3 °C -4.6 °C 1019.2 hPa WNW 4.3 km/h 11.1 km/h 65 % 0 mm
07:52 1.4 °C -4.4 °C 1019.2 hPa NW 10.1 km/h 18.5 km/h 65 % 0 mm
07:57 1.6 °C -4.3 °C 1019.2 hPa NW 6.8 km/h 16.7 km/h 65 % 0 mm
08:02 1.8 °C -4.1 °C 1019.2 hPa NW 5.3 km/h 11.1 km/h 65 % 0 mm
08:07 1.9 °C -4.2 °C 1019.2 hPa WNW 8 km/h 13 km/h 64 % 0 mm
08:12 1.9 °C -4.6 °C 1019.2 hPa NNE 9.2 km/h 14.8 km/h 62 % 0 mm
08:17 2.1 °C -4.3 °C 1019.2 hPa WNW 5.5 km/h 9.7 km/h 63 % 0 mm
08:22 2.2 °C -4.4 °C 1019.2 hPa WNW 8.2 km/h 13 km/h 62 % 0 mm
08:27 2.3 °C -4.5 °C 1019.5 hPa North 6.8 km/h 13 km/h 61 % 0 mm
08:32 2.4 °C -4.3 °C 1019.5 hPa West 9.3 km/h 16.7 km/h 61 % 0 mm
08:37 2.6 °C -4.4 °C 1019.5 hPa NW 6 km/h 8 km/h 60 % 0 mm
08:42 2.7 °C -4.6 °C 1019.5 hPa NW 9.8 km/h 16.7 km/h 59 % 0 mm
08:47 2.8 °C -4.4 °C 1019.2 hPa WNW 8.4 km/h 16.1 km/h 59 % 0 mm
08:57 3.1 °C -4.4 °C 1019.5 hPa North 6.1 km/h 13 km/h 58 % 0 mm
09:02 3.3 °C -4.2 °C 1019.2 hPa NW 5.1 km/h 14.8 km/h 58 % 0 mm
09:08 3.4 °C -4.3 °C 1019.2 hPa NNW 8 km/h 12.9 km/h 57 % 0 mm
09:13 3.6 °C -4.1 °C 1019.2 hPa NW 6.1 km/h 11.1 km/h 57 % 0 mm
09:18 3.7 °C -4.1 °C 1019.2 hPa NNW 5.6 km/h 9.7 km/h 57 % 0 mm
09:23 3.8 °C -4.2 °C 1019.2 hPa NW 5.5 km/h 13 km/h 56 % 0 mm
09:28 3.8 °C -3.9 °C 1019.2 hPa NNW 4.8 km/h 8 km/h 57 % 0 mm
09:33 4 °C -4 °C 1019.2 hPa NW 5.6 km/h 11.1 km/h 56 % 0 mm
09:38 4.1 °C -3.9 °C 1019.2 hPa NNW 4.8 km/h 11.3 km/h 56 % 0 mm
09:43 4.3 °C -4 °C 1019.2 hPa NNW 4.8 km/h 11.3 km/h 55 % 0 mm
09:48 4.3 °C -4.2 °C 1019.2 hPa NW 4.8 km/h 19.3 km/h 54 % 0 mm
09:53 4.4 °C -3.8 °C 1019.2 hPa NW 8 km/h 12.9 km/h 55 % 0 mm
09:58 4.6 °C -3.4 °C 1019.2 hPa NW 7.2 km/h 9.7 km/h 56 % 0 mm
10:03 4.8 °C -3.5 °C 1019.2 hPa WNW 4.3 km/h 11.1 km/h 55 % 0 mm
10:08 4.9 °C -3.9 °C 1019.2 hPa NW 4 km/h 9.3 km/h 53 % 0 mm
10:13 4.9 °C -3.8 °C 1019.2 hPa NW 4.8 km/h 11.1 km/h 53 % 0 mm
10:18 5.1 °C -3.7 °C 1019.2 hPa NW 4.5 km/h 13 km/h 53 % 0 mm
10:23 5.2 °C -3.7 °C 1019.2 hPa WNW 5.5 km/h 14.8 km/h 53 % 0 mm
10:28 5.3 °C -3.5 °C 1018.8 hPa WNW 6 km/h 11.1 km/h 53 % 0 mm
10:33 5.6 °C -3.6 °C 1018.8 hPa NW 10.8 km/h 16.1 km/h 52 % 0 mm
10:38 5.8 °C -3.3 °C 1018.8 hPa WNW 7.7 km/h 13 km/h 52 % 0 mm
10:43 6.1 °C -2.8 °C 1018.5 hPa WNW 4.7 km/h 9.3 km/h 53 % 0 mm
10:48 6.3 °C -3.1 °C 1018.5 hPa WNW 5.6 km/h 7.4 km/h 51 % 0 mm
10:53 6.5 °C -3.4 °C 1018.5 hPa NNW 3.4 km/h 7.4 km/h 49 % 0 mm
10:58 6.7 °C -3 °C 1018.5 hPa NW 6.6 km/h 8 km/h 50 % 0 mm
11:03 6.9 °C -3.1 °C 1018.2 hPa West 8.5 km/h 9.3 km/h 49 % 0 mm
11:08 7.1 °C -2.2 °C 1018.2 hPa WNW 5.5 km/h 5.6 km/h 52 % 0 mm
11:13 7.2 °C -2.3 °C 1018.2 hPa NNW 4.2 km/h 5.6 km/h 51 % 0 mm
11:18 7.4 °C -2.7 °C 1018.2 hPa North 3.7 km/h 5.6 km/h 49 % 0 mm
11:23 7.7 °C -2.4 °C 1018.2 hPa NNW 7.1 km/h 9.3 km/h 49 % 0 mm
11:28 8.1 °C -2.3 °C 1018.2 hPa North 5.6 km/h 8 km/h 48 % 0 mm
11:33 8.3 °C -2.3 °C 1018.2 hPa NW 6.3 km/h 6.4 km/h 47 % 0 mm
11:39 8.6 °C -3.3 °C 1017.8 hPa NW 3.1 km/h 11.1 km/h 43 % 0 mm
11:44 8.8 °C -1.4 °C 1017.8 hPa NNW 4.3 km/h 7.4 km/h 49 % 0 mm
11:49 8.9 °C -2.1 °C 1017.8 hPa NNW 4.3 km/h 9.3 km/h 46 % 0 mm
11:54 9.3 °C -2.4 °C 1017.5 hPa NNW 5.1 km/h 13 km/h 44 % 0 mm
11:59 9.4 °C -1.9 °C 1017.5 hPa WNW 3.2 km/h 11.1 km/h 45 % 0 mm
12:04 9.3 °C -2.6 °C 1017.2 hPa NNW 6.6 km/h 9.3 km/h 43 % 0 mm
12:09 9.2 °C -3.1 °C 1017.2 hPa NW 6.8 km/h 11.1 km/h 42 % 0 mm
12:14 9.2 °C -3.1 °C 1017.2 hPa NW 5.1 km/h 7.4 km/h 42 % 0 mm
12:19 9.3 °C -2.9 °C 1017.2 hPa NNW 3.7 km/h 5.6 km/h 42 % 0 mm
12:24 9.4 °C -3.5 °C 1017.2 hPa WNW 4.3 km/h 9.3 km/h 40 % 0 mm
12:29 9.3 °C -4 °C 1017.2 hPa WNW 5.3 km/h 8 km/h 39 % 0 mm
12:34 9.3 °C -3 °C 1016.8 hPa NNE 3.2 km/h 9.7 km/h 42 % 0 mm
12:39 9.4 °C -2.8 °C 1016.8 hPa WSW 2.9 km/h 5.6 km/h 42 % 0 mm
12:44 9.4 °C -4.6 °C 1017.2 hPa West 3.9 km/h 9.7 km/h 37 % 0 mm
12:49 9.4 °C -3.8 °C 1016.8 hPa NW 3.7 km/h 9.7 km/h 39 % 0 mm
12:55 9.6 °C -4.4 °C 1016.8 hPa North 3.5 km/h 8 km/h 37 % 0 mm
13:00 9.7 °C -5.4 °C 1016.8 hPa West 3.4 km/h 13 km/h 34 % 0 mm
13:05 9.6 °C -5.1 °C 1016.8 hPa WNW 3.2 km/h 7.4 km/h 35 % 0 mm
13:10 9.7 °C -5.4 °C 1016.8 hPa WNW 3.4 km/h 7.4 km/h 34 % 0 mm
13:15 9.8 °C -3.5 °C 1016.5 hPa WNW 7.1 km/h 11.1 km/h 39 % 0 mm
13:20 10 °C -5.2 °C 1016.5 hPa SW 2.6 km/h 6.4 km/h 34 % 0 mm
13:22 10.1 °C -5.1 °C 1016.5 hPa NW 8 km/h 9.3 km/h 34 % 0 mm
13:28 10.1 °C -5.1 °C 1016.5 hPa WSW 4 km/h 14.8 km/h 34 % 0 mm
13:33 10.3 °C -4.5 °C 1016.5 hPa West 4.8 km/h 11.3 km/h 35 % 0 mm
13:38 10.5 °C -4.7 °C 1016.5 hPa WNW 4.8 km/h 9.7 km/h 34 % 0 mm
13:43 10.7 °C -3.8 °C 1016.5 hPa NW 3.2 km/h 9.7 km/h 36 % 0 mm
13:48 10.8 °C -4.8 °C 1016.5 hPa NW 8 km/h 12.9 km/h 33 % 0 mm
13:53 10.8 °C -3.7 °C 1016.5 hPa WNW 8 km/h 12.9 km/h 36 % 0 mm
13:58 10.8 °C -4.5 °C 1016.5 hPa West 11.1 km/h 13 km/h 34 % 0 mm
14:03 10.8 °C -4.1 °C 1016.5 hPa WNW 3.2 km/h 16.1 km/h 35 % 0 mm
14:04 10.8 °C -4.1 °C 1016.5 hPa West 1.1 km/h 9.3 km/h 35 % 0 mm
14:09 10.8 °C -4.9 °C 1016.5 hPa WSW 8.7 km/h 12.9 km/h 33 % 0 mm
14:14 10.8 °C -5.3 °C 1016.5 hPa NW 9.2 km/h 13 km/h 32 % 0 mm
14:19 10.8 °C -4.9 °C 1016.1 hPa NW 9.5 km/h 14.8 km/h 33 % 0 mm
14:24 10.8 °C -5.2 °C 1016.1 hPa West 5.1 km/h 9.3 km/h 32 % 0 mm
14:29 10.9 °C -4.8 °C 1016.1 hPa WNW 11.6 km/h 18.5 km/h 33 % 0 mm
14:34 10.9 °C -4.3 °C 1016.1 hPa WNW 3.7 km/h 11.1 km/h 34 % 0 mm
14:39 11 °C -4.7 °C 1016.1 hPa NW 9 km/h 16.7 km/h 33 % 0 mm
14:45 11 °C -5.1 °C 1016.1 hPa West 6.4 km/h 11.1 km/h 32 % 0 mm
14:50 11.1 °C -3.8 °C 1016.1 hPa NW 6.1 km/h 14.5 km/h 35 % 0 mm
14:55 11.1 °C -5 °C 1016.1 hPa WNW 12.9 km/h 18.5 km/h 32 % 0 mm
15:00 11.1 °C -4.2 °C 1015.8 hPa WNW 4.3 km/h 18.5 km/h 34 % 0 mm
15:05 11.1 °C -4.6 °C 1015.8 hPa NNW 7.4 km/h 13 km/h 33 % 0 mm
15:10 11.1 °C -4.6 °C 1015.8 hPa NNW 5.8 km/h 9.3 km/h 33 % 0 mm
15:15 11.1 °C -5 °C 1015.8 hPa WNW 8 km/h 14.8 km/h 32 % 0 mm
15:20 11.1 °C -4.6 °C 1015.8 hPa WNW 9.7 km/h 16.7 km/h 33 % 0 mm
15:25 11 °C -4.3 °C 1015.5 hPa NW 9.2 km/h 14.8 km/h 34 % 0 mm
15:30 11 °C -4.7 °C 1015.8 hPa West 9.2 km/h 16.7 km/h 33 % 0 mm
15:35 10.9 °C -4.8 °C 1015.5 hPa WNW 9.5 km/h 16.7 km/h 33 % 0 mm
15:40 10.8 °C -4.1 °C 1015.5 hPa WNW 4.3 km/h 8 km/h 35 % 0 mm
15:45 10.8 °C -5.3 °C 1015.5 hPa WNW 10.9 km/h 16.7 km/h 32 % 0 mm
15:50 10.8 °C -5.3 °C 1015.1 hPa WSW 11.6 km/h 16.7 km/h 32 % 0 mm
15:51 10.8 °C -5.3 °C 1015.1 hPa WNW 9.5 km/h 16.7 km/h 32 % 0 mm
15:56 10.8 °C -4.8 °C 1015.1 hPa WNW 10.1 km/h 18.5 km/h 33 % 0 mm
16:01 10.8 °C -4.8 °C 1015.1 hPa WNW 7.1 km/h 11.3 km/h 33 % 0 mm
16:06 10.8 °C -5.2 °C 1015.1 hPa WNW 10.1 km/h 16.7 km/h 32 % 0 mm
16:11 10.8 °C -4.8 °C 1015.1 hPa WNW 9.3 km/h 14.8 km/h 33 % 0 mm
16:16 10.7 °C -4.9 °C 1015.1 hPa WNW 8.7 km/h 18.5 km/h 33 % 0 mm
16:21 10.7 °C -4.6 °C 1015.1 hPa WNW 5 km/h 8 km/h 34 % 0 mm
16:26 10.8 °C -4.9 °C 1015.1 hPa NW 7.1 km/h 13 km/h 33 % 0 mm
16:31 10.8 °C -5.2 °C 1015.1 hPa WNW 9 km/h 13 km/h 32 % 0 mm
16:36 10.8 °C -4.4 °C 1014.8 hPa West 5.1 km/h 11.1 km/h 34 % 0 mm
16:41 10.9 °C -5.6 °C 1014.8 hPa West 3.2 km/h 9.7 km/h 31 % 0 mm
16:46 10.9 °C -5.6 °C 1014.8 hPa West 6.1 km/h 11.1 km/h 31 % 0 mm
16:51 10.9 °C -6 °C 1014.8 hPa WNW 6.9 km/h 11.1 km/h 30 % 0 mm
16:56 10.8 °C -5.2 °C 1014.8 hPa WNW 5 km/h 9.3 km/h 32 % 0 mm
17:01 10.7 °C -5.4 °C 1014.4 hPa WNW 5.5 km/h 8 km/h 32 % 0 mm
17:06 10.5 °C -5.5 °C 1014.4 hPa WNW 7.9 km/h 13 km/h 32 % 0 mm
17:11 10.4 °C -5.6 °C 1014.4 hPa NW 7.1 km/h 11.1 km/h 32 % 0 mm
17:16 10.3 °C -4.9 °C 1014.4 hPa NW 3.5 km/h 5.6 km/h 34 % 0 mm
17:21 10.3 °C -5.3 °C 1014.1 hPa NNW 3.1 km/h 5.6 km/h 33 % 0 mm
17:26 10.3 °C -6.2 °C 1014.1 hPa WNW 7.6 km/h 11.1 km/h 31 % 0 mm
17:31 10.3 °C -6.6 °C 1014.1 hPa WNW 6.1 km/h 7.4 km/h 30 % 0 mm
17:36 10.2 °C -6.2 °C 1014.1 hPa WNW 1.6 km/h 5.6 km/h 31 % 0 mm
17:41 10.2 °C -5.8 °C 1014.1 hPa WNW 5 km/h 6.4 km/h 32 % 0 mm
17:46 10.2 °C -5 °C 1014.1 hPa NW 1.8 km/h 5.6 km/h 34 % 0 mm
17:51 10.1 °C -5.5 °C 1014.1 hPa WNW 4.7 km/h 5.6 km/h 33 % 0 mm
17:56 10 °C -5.2 °C 1014.1 hPa WNW 5.1 km/h 7.4 km/h 34 % 0 mm
18:01 10 °C -5.2 °C 1014.1 hPa WNW 2.3 km/h 4.8 km/h 34 % 0 mm
18:06 9.9 °C -5.2 °C 1013.8 hPa WNW 0.3 km/h 3.7 km/h 34 % 0 mm
18:11 9.9 °C -4.8 °C 1013.8 hPa WNW 2.3 km/h 6.4 km/h 35 % 0 mm
18:16 9.9 °C -5.2 °C 1013.8 hPa NW 4.7 km/h 6.4 km/h 34 % 0 mm
18:21 9.9 °C -5.2 °C 1013.8 hPa NW 6.4 km/h 9.3 km/h 34 % 0 mm
18:26 9.9 °C -5.3 °C 1014.1 hPa WNW 4.8 km/h 11.1 km/h 34 % 0 mm
18:31 9.8 °C -5.7 °C 1014.1 hPa WNW 3.9 km/h 5.6 km/h 33 % 0 mm
18:36 9.8 °C -5.3 °C 1013.8 hPa Calm     34 % 0 mm
18:42 9.8 °C -5 °C 1013.8 hPa WNW 1.3 km/h 5.6 km/h 35 % 0 mm
18:47 9.7 °C -4.7 °C 1013.8 hPa WNW 2.7 km/h 5.6 km/h 36 % 0 mm
18:52 9.5 °C -4.8 °C 1013.8 hPa West 3.9 km/h 5.6 km/h 36 % 0 mm
18:57 9.3 °C -5 °C 1014.1 hPa West 1.9 km/h 3.7 km/h 36 % 0 mm
19:02 9.3 °C -5.1 °C 1013.8 hPa West 1.1 km/h 1.9 km/h 36 % 0 mm
19:07 9.2 °C -5.2 °C 1013.8 hPa Calm     36 % 0 mm
19:12 9.1 °C -4.9 °C 1013.4 hPa Calm     37 % 0 mm
19:17 9 °C -4.6 °C 1013.8 hPa Calm     38 % 0 mm
19:22 8.9 °C -4.3 °C 1013.8 hPa Calm   1.9 km/h 39 % 0 mm
19:27 8.8 °C -4.1 °C 1013.8 hPa Calm     40 % 0 mm
19:32 8.6 °C -3.9 °C 1013.8 hPa Calm     41 % 0 mm
19:37 8.4 °C -4.4 °C 1013.8 hPa Calm     40 % 0 mm
19:42 8.3 °C -3.9 °C 1013.8 hPa Calm     42 % 0 mm
19:47 8.1 °C -4.1 °C 1013.8 hPa Calm     42 % 0 mm
19:52 7.9 °C -3.9 °C 1013.8 hPa Calm     43 % 0 mm
19:57 7.7 °C -4.1 °C 1013.8 hPa Calm     43 % 0 mm
20:02 7.5 °C -4.3 °C 1014.1 hPa West 0.6 km/h 1.9 km/h 43 % 0 mm
20:07 7.3 °C -3.8 °C 1013.8 hPa Calm     45 % 0 mm
20:12 7.2 °C -3.7 °C 1013.8 hPa West 1 km/h 1.9 km/h 46 % 0 mm
20:17 6.9 °C -3.7 °C 1013.8 hPa Calm     47 % 0 mm
20:22 6.7 °C -3.8 °C 1013.8 hPa Calm     47 % 0 mm
20:27 6.6 °C -3.7 °C 1014.1 hPa West 0.2 km/h   48 % 0 mm
20:32 6.4 °C -3.8 °C 1014.1 hPa West 0.8 km/h 1.9 km/h 48 % 0 mm
20:37 6.2 °C -4.1 °C 1014.1 hPa Calm   1.9 km/h 48 % 0 mm
20:42 6.1 °C -4.2 °C 1014.1 hPa Calm     48 % 0 mm
20:47 5.9 °C -4 °C 1014.1 hPa West 1 km/h 1.9 km/h 49 % 0 mm
20:52 5.7 °C -3.9 °C 1014.1 hPa West 1.3 km/h 1.9 km/h 50 % 0 mm
20:57 5.6 °C -4.3 °C 1014.1 hPa West 1.4 km/h 1.9 km/h 49 % 0 mm
21:02 5.6 °C -4.6 °C 1014.1 hPa West 2.4 km/h 3.7 km/h 48 % 0 mm
21:07 5.5 °C -4.7 °C 1014.4 hPa West 2.4 km/h 5.6 km/h 48 % 0 mm
21:12 5.4 °C -4.4 °C 1014.4 hPa West 2.7 km/h 3.7 km/h 49 % 0 mm
21:17 5.4 °C -4.2 °C 1014.4 hPa West 1.6 km/h 3.7 km/h 50 % 0 mm
21:23 5.4 °C -4.5 °C 1014.4 hPa West 2.1 km/h 3.7 km/h 49 % 0 mm
21:27 5.3 °C -4.3 °C 1014.4 hPa West 2.6 km/h 3.7 km/h 50 % 0 mm
21:32 5.3 °C -4.3 °C 1014.4 hPa West 0.6 km/h 3.7 km/h 50 % 0 mm
21:37 5.3 °C -4.3 °C 1014.4 hPa West 1.1 km/h 5.6 km/h 50 % 0 mm
21:43 5.2 °C -4.4 °C 1014.4 hPa West 1.6 km/h 4.8 km/h 50 % 0 mm
21:48 5.2 °C -4.7 °C 1014.4 hPa West 2.1 km/h 5.6 km/h 49 % 0 mm
21:53 5.1 °C -4.7 °C 1014.4 hPa West 2.3 km/h 4.8 km/h 49 % 0 mm
21:58 5.1 °C -4.8 °C 1014.4 hPa West 3.1 km/h 5.6 km/h 49 % 0 mm
22:03 5.1 °C -5.1 °C 1014.4 hPa WSW 4 km/h 5.6 km/h 48 % 0 mm
22:08 5.1 °C -5.1 °C 1014.4 hPa WSW 4.2 km/h 5.6 km/h 48 % 0 mm
22:13 5.1 °C -4.8 °C 1014.4 hPa SW 4.8 km/h 8 km/h 49 % 0 mm
22:18 5.1 °C -5 °C 1014.4 hPa WSW 2.6 km/h 5.6 km/h 48 % 0 mm
22:23 5.2 °C -4.9 °C 1014.4 hPa WSW 1.9 km/h 3.7 km/h 48 % 0 mm
22:28 5.2 °C -4.9 °C 1014.4 hPa WSW 3.1 km/h 5.6 km/h 48 % 0 mm
22:33 5.3 °C -4.9 °C 1014.4 hPa WSW 1.8 km/h 3.7 km/h 48 % 0 mm
22:38 5.4 °C -4.5 °C 1014.1 hPa WSW 1.4 km/h 3.7 km/h 49 % 0 mm
22:43 5.5 °C -4.1 °C 1014.4 hPa WSW 0.6 km/h 1.9 km/h 50 % 0 mm
22:48 5.6 °C -3.8 °C 1014.4 hPa WSW 1.9 km/h 3.7 km/h 51 % 0 mm
22:53 5.6 °C -3.7 °C 1014.4 hPa WSW 0.8 km/h 3.2 km/h 51 % 0 mm
22:58 5.7 °C -3.7 °C 1014.1 hPa SW 2.1 km/h 4.8 km/h 51 % 0 mm
23:03 5.7 °C -3.4 °C 1014.1 hPa SW 2.1 km/h 3.7 km/h 52 % 0 mm
23:08 5.8 °C -3.1 °C 1014.1 hPa SW 3.2 km/h 5.6 km/h 53 % 0 mm
23:13 5.8 °C -3.1 °C 1014.1 hPa SW 1 km/h 3.7 km/h 53 % 0 mm
23:18 5.8 °C -2.8 °C 1014.1 hPa SW 0.6 km/h 1.9 km/h 54 % 0 mm
23:23 5.8 °C -3 °C 1013.8 hPa SW 1.6 km/h 3.7 km/h 53 % 0 mm
23:28 5.8 °C -3 °C 1014.1 hPa SW 1.4 km/h 3.7 km/h 53 % 0 mm
23:33 5.8 °C -2.8 °C 1013.8 hPa SW 0.3 km/h 3.7 km/h 54 % 0 mm
23:38 5.8 °C -2.8 °C 1013.8 hPa SW 0.6 km/h 3.7 km/h 54 % 0 mm
23:43 5.9 °C -3 °C 1013.8 hPa West 1.6 km/h 3.7 km/h 53 % 0 mm
23:48 5.9 °C -3 °C 1013.4 hPa West 3.2 km/h 5.6 km/h 53 % 0 mm
23:53 5.9 °C -3 °C 1013.8 hPa SW 2.1 km/h 5.6 km/h 53 % 0 mm
23:58 5.9 °C -2.9 °C 1013.4 hPa WSW 3.4 km/h 5.6 km/h 53 % 0 mm
Crab Meadow Weather
Compliments of Weather Underground - 3 mb

Script developed by  Jim McMurry - jmcmurry@mwt.net Adapted for the template by  Wim van der Kuil - Leuven-Template.eu

Astronomy: Earth is 93 million miles away from the Sun.